DAL2894 KATL-KORD

Flight info

Callsign DAL2894
Flight time 1h 29m
Altitude 29000
Route VARNM2 GLAZR Q118 VOSTK/N0460F300 Q118 HEVAN BONNT VEECK5
Aircraft A321/M-SDE3FGHIRWY/LB1

Departure

Time 2026-05-05 23:43
Airport Hartsfield Jackson Atlanta International Airport (KATL)

Arrival

Time 2026-05-06 01:13
Airport Chicago O'Hare International Airport (KORD)
Time Latitude Longitude Altitude Speed Heading
2026-05-05 22:54 33.64340 -84.43866 1021 ft 0 kts 270°
2026-05-05 23:23 33.64340 -84.43865 1021 ft 1 kts 270°
2026-05-05 23:23 33.64340 -84.43848 1021 ft 2 kts 270°
2026-05-05 23:24 33.64340 -84.43830 1021 ft 2 kts 270°
2026-05-05 23:24 33.64340 -84.43813 1021 ft 2 kts 270°
2026-05-05 23:24 33.64337 -84.43794 1021 ft 2 kts 306°
2026-05-05 23:24 33.64330 -84.43786 1021 ft 0 kts 327°
2026-05-05 23:25 33.64324 -84.43781 1021 ft 0 kts 330°
2026-05-05 23:26 33.64329 -84.43784 1021 ft 1 kts 342°
2026-05-05 23:27 33.64351 -84.43787 1021 ft 5 kts 356°
2026-05-05 23:27 33.64407 -84.43782 1021 ft 10 kts 19°
2026-05-05 23:27 33.64456 -84.43708 1021 ft 12 kts 80°
2026-05-05 23:27 33.64459 -84.43610 1021 ft 11 kts 90°
2026-05-05 23:28 33.64458 -84.43515 1021 ft 11 kts 91°
2026-05-05 23:28 33.64460 -84.43422 1021 ft 10 kts 90°
2026-05-05 23:28 33.64459 -84.43330 1021 ft 12 kts 90°
2026-05-05 23:28 33.64459 -84.43224 1021 ft 12 kts 90°
2026-05-05 23:29 33.64459 -84.43119 1021 ft 12 kts 90°
2026-05-05 23:29 33.64459 -84.43018 1021 ft 11 kts 90°
2026-05-05 23:29 33.64459 -84.42920 1021 ft 11 kts 90°
2026-05-05 23:29 33.64460 -84.42826 1021 ft 11 kts 88°
2026-05-05 23:30 33.64466 -84.42719 1021 ft 15 kts 85°
2026-05-05 23:30 33.64468 -84.42572 1018 ft 20 kts 90°
2026-05-05 23:30 33.64468 -84.42397 1014 ft 19 kts 89°
2026-05-05 23:30 33.64480 -84.42248 1012 ft 17 kts 69°
2026-05-05 23:31 33.64533 -84.42120 1012 ft 17 kts 75°
2026-05-05 23:31 33.64541 -84.41974 1009 ft 18 kts 91°
2026-05-05 23:31 33.64541 -84.41822 1006 ft 18 kts 90°
2026-05-05 23:31 33.64540 -84.41672 1006 ft 17 kts 90°
2026-05-05 23:32 33.64540 -84.41539 1009 ft 14 kts 91°
2026-05-05 23:32 33.64540 -84.41425 1011 ft 12 kts 90°
2026-05-05 23:32 33.64541 -84.41295 1014 ft 19 kts 90°
2026-05-05 23:32 33.64540 -84.41106 1018 ft 21 kts 90°
2026-05-05 23:33 33.64541 -84.40943 1021 ft 18 kts 90°
2026-05-05 23:33 33.64552 -84.40813 1026 ft 13 kts 71°
2026-05-05 23:33 33.64570 -84.40721 1030 ft 9 kts 87°
2026-05-05 23:33 33.64571 -84.40659 1032 ft 5 kts 89°
2026-05-05 23:34 33.64571 -84.40623 1033 ft 2 kts 83°
2026-05-05 23:34 33.64574 -84.40609 1034 ft 0 kts 73°
2026-05-05 23:41 33.64581 -84.40593 1034 ft 6 kts 54°
2026-05-05 23:41 33.64640 -84.40578 1034 ft 10 kts 337°
2026-05-05 23:41 33.64674 -84.40623 1033 ft 6 kts 287°
2026-05-05 23:42 33.64677 -84.40647 1032 ft 0 kts 273°
2026-05-05 23:42 33.64679 -84.40712 1030 ft 32 kts 270°
2026-05-05 23:42 33.64671 -84.41283 1014 ft 102 kts 269°
2026-05-05 23:42 33.64677 -84.42393 1013 ft 159 kts 269°
2026-05-05 23:43 33.64678 -84.43781 1443 ft 170 kts 268°
2026-05-05 23:43 33.64716 -84.45192 2050 ft 172 kts 269°
2026-05-05 23:43 33.64820 -84.46628 2659 ft 177 kts 279°
2026-05-05 23:43 33.65268 -84.48040 3102 ft 192 kts 290°
2026-05-05 23:44 33.65893 -84.49535 3490 ft 208 kts 291°
2026-05-05 23:44 33.66562 -84.51144 3876 ft 224 kts 291°
2026-05-05 23:44 33.67270 -84.52919 4190 ft 246 kts 291°
2026-05-05 23:44 33.68012 -84.54832 4552 ft 262 kts 291°
2026-05-05 23:45 33.68949 -84.56780 5003 ft 279 kts 309°
2026-05-05 23:45 33.70598 -84.58051 5649 ft 290 kts 341°
2026-05-05 23:45 33.72581 -84.58290 6391 ft 292 kts 359°
2026-05-05 23:45 33.74609 -84.58204 7095 ft 293 kts 359°
2026-05-05 23:46 33.76655 -84.58126 7816 ft 293 kts 358°
2026-05-05 23:46 33.78692 -84.58073 8529 ft 293 kts 356°
2026-05-05 23:46 33.80731 -84.58039 9231 ft 293 kts 355°
2026-05-05 23:46 33.82756 -84.58036 9899 ft 293 kts 354°
2026-05-05 23:47 33.84787 -84.58064 10470 ft 297 kts 353°
2026-05-05 23:47 33.86917 -84.58128 10752 ft 311 kts 352°
2026-05-05 23:47 33.89125 -84.58207 11016 ft 326 kts 353°
2026-05-05 23:47 33.91447 -84.58289 11276 ft 340 kts 353°
2026-05-05 23:48 33.93872 -84.58368 11524 ft 354 kts 353°
2026-05-05 23:48 33.96379 -84.58448 11764 ft 367 kts 354°
2026-05-05 23:48 33.98960 -84.58525 12018 ft 379 kts 354°
2026-05-05 23:48 34.01617 -84.58601 12492 ft 384 kts 353°
2026-05-05 23:49 34.04301 -84.58677 13078 ft 385 kts 354°
2026-05-05 23:49 34.06974 -84.58755 13640 ft 386 kts 354°
2026-05-05 23:49 34.09660 -84.58835 14158 ft 389 kts 354°
2026-05-05 23:49 34.12371 -84.58915 14655 ft 391 kts 354°
2026-05-05 23:50 34.15126 -84.58998 15134 ft 394 kts 354°
2026-05-05 23:50 34.17810 -84.59079 15609 ft 397 kts 354°
2026-05-05 23:50 34.20632 -84.59164 16091 ft 400 kts 353°
2026-05-05 23:50 34.23440 -84.59250 16521 ft 403 kts 353°
2026-05-05 23:51 34.26237 -84.59336 16963 ft 406 kts 353°
2026-05-05 23:51 34.29057 -84.59462 17369 ft 408 kts 352°
2026-05-05 23:51 34.31897 -84.59683 17785 ft 410 kts 351°
2026-05-05 23:51 34.34748 -84.59924 18238 ft 412 kts 351°
2026-05-05 23:52 34.37632 -84.60172 18657 ft 415 kts 351°
2026-05-05 23:52 34.40501 -84.60419 19068 ft 417 kts 351°
2026-05-05 23:52 34.43394 -84.60667 19476 ft 419 kts 351°
2026-05-05 23:52 34.46332 -84.60918 19850 ft 422 kts 351°
2026-05-05 23:53 34.49249 -84.61167 20232 ft 424 kts 351°
2026-05-05 23:53 34.52213 -84.61420 20605 ft 426 kts 351°
2026-05-05 23:53 34.55172 -84.61673 20952 ft 428 kts 351°
2026-05-05 23:53 34.58165 -84.61925 21342 ft 430 kts 351°
2026-05-05 23:54 34.61122 -84.62177 21687 ft 431 kts 351°
2026-05-05 23:54 34.64153 -84.62436 21996 ft 434 kts 351°
2026-05-05 23:54 34.67164 -84.62695 22340 ft 436 kts 351°
2026-05-05 23:54 34.70206 -84.62954 22663 ft 438 kts 351°
2026-05-05 23:55 34.73217 -84.63213 22936 ft 441 kts 351°
2026-05-05 23:55 34.76315 -84.63477 23280 ft 442 kts 351°
2026-05-05 23:55 34.79375 -84.63738 23640 ft 442 kts 351°
2026-05-05 23:55 34.82439 -84.63998 23965 ft 443 kts 350°
2026-05-05 23:56 34.85533 -84.64265 24218 ft 446 kts 350°
2026-05-05 23:56 34.88598 -84.64529 24543 ft 446 kts 350°
2026-05-05 23:56 34.91716 -84.64796 24978 ft 444 kts 350°
2026-05-05 23:56 34.94783 -84.65058 25456 ft 441 kts 349°
2026-05-05 23:57 34.97804 -84.65315 25902 ft 439 kts 349°
2026-05-05 23:57 35.00850 -84.65577 26317 ft 437 kts 349°
2026-05-05 23:57 35.03871 -84.65836 26703 ft 436 kts 348°
2026-05-05 23:57 35.06911 -84.66099 27076 ft 435 kts 348°
2026-05-05 23:58 35.09897 -84.66357 27472 ft 433 kts 348°
2026-05-05 23:58 35.12917 -84.66618 27827 ft 433 kts 348°
2026-05-05 23:58 35.15917 -84.66878 28128 ft 433 kts 348°
2026-05-05 23:58 35.18909 -84.67139 28385 ft 434 kts 348°
2026-05-05 23:59 35.21939 -84.67404 28688 ft 434 kts 347°
2026-05-05 23:59 35.24942 -84.67664 28930 ft 436 kts 348°
2026-05-05 23:59 35.31007 -84.68198 28953 ft 437 kts 347°
2026-05-06 00:00 35.37082 -84.68726 28955 ft 437 kts 347°
2026-05-06 00:00 35.43129 -84.69250 28953 ft 436 kts 347°
2026-05-06 00:01 35.49202 -84.69785 28953 ft 436 kts 347°
2026-05-06 00:01 35.55205 -84.70309 28948 ft 436 kts 347°
2026-05-06 00:02 35.61292 -84.70840 28940 ft 438 kts 347°
2026-05-06 00:02 35.67329 -84.71371 28933 ft 437 kts 347°
2026-05-06 00:03 35.73400 -84.71902 28940 ft 439 kts 347°
2026-05-06 00:03 35.79465 -84.72433 28944 ft 435 kts 347°
2026-05-06 00:04 35.85495 -84.72967 28951 ft 437 kts 347°
2026-05-06 00:04 35.91587 -84.73502 28957 ft 439 kts 347°
2026-05-06 00:05 36.00699 -84.74309 28963 ft 436 kts 346°
2026-05-06 00:06 36.06750 -84.74849 28959 ft 437 kts 347°
2026-05-06 00:06 36.12814 -84.75384 28956 ft 439 kts 347°
2026-05-06 00:07 36.18933 -84.75931 28944 ft 438 kts 346°
2026-05-06 00:07 36.24990 -84.76469 28936 ft 436 kts 347°
2026-05-06 00:08 36.31035 -84.77005 28929 ft 437 kts 347°
2026-05-06 00:08 36.37070 -84.77546 28924 ft 435 kts 346°
2026-05-06 00:09 36.43199 -84.77940 28925 ft 444 kts 350°
2026-05-06 00:09 36.49347 -84.77818 28923 ft 443 kts 351°
2026-05-06 00:10 36.55533 -84.77629 28922 ft 444 kts 352°
2026-05-06 00:10 36.61681 -84.77445 28913 ft 445 kts 352°
2026-05-06 00:11 36.67891 -84.77261 28905 ft 443 kts 351°
2026-05-06 00:11 36.74043 -84.77085 28908 ft 445 kts 352°
2026-05-06 00:12 36.80216 -84.76903 28902 ft 445 kts 351°
2026-05-06 00:12 36.86383 -84.76722 28899 ft 443 kts 351°
2026-05-06 00:13 36.92567 -84.76545 28897 ft 445 kts 351°
2026-05-06 00:13 36.98748 -84.76361 28896 ft 446 kts 351°
2026-05-06 00:14 37.04943 -84.76180 28885 ft 444 kts 351°
2026-05-06 00:14 37.11142 -84.75996 28891 ft 445 kts 351°
2026-05-06 00:15 37.17143 -84.75822 28881 ft 444 kts 351°
2026-05-06 00:15 37.23306 -84.75641 28890 ft 444 kts 351°
2026-05-06 00:16 37.29495 -84.75461 28873 ft 446 kts 351°
2026-05-06 00:16 37.35686 -84.75271 28879 ft 446 kts 351°
2026-05-06 00:17 37.41880 -84.75064 28875 ft 446 kts 351°
2026-05-06 00:17 37.48087 -84.74860 28873 ft 446 kts 351°
2026-05-06 00:18 37.54281 -84.74658 28881 ft 448 kts 351°
2026-05-06 00:18 37.60516 -84.74456 28880 ft 447 kts 351°
2026-05-06 00:19 37.66740 -84.74254 28876 ft 448 kts 351°
2026-05-06 00:19 37.72972 -84.74050 28881 ft 447 kts 351°
2026-05-06 00:20 37.79164 -84.73856 28875 ft 449 kts 351°
2026-05-06 00:20 37.85440 -84.73663 28871 ft 449 kts 351°
2026-05-06 00:21 37.91657 -84.73471 28871 ft 448 kts 351°
2026-05-06 00:21 37.97895 -84.73276 28871 ft 449 kts 351°
2026-05-06 00:22 38.04124 -84.73084 28875 ft 448 kts 351°
2026-05-06 00:22 38.10338 -84.72889 28870 ft 450 kts 352°
2026-05-06 00:23 38.16620 -84.72688 28858 ft 450 kts 352°
2026-05-06 00:23 38.22804 -84.72496 28853 ft 451 kts 352°
2026-05-06 00:24 38.28862 -84.72308 28844 ft 451 kts 352°
2026-05-06 00:24 38.35110 -84.72112 28847 ft 452 kts 352°
2026-05-06 00:25 38.41386 -84.71921 28839 ft 452 kts 351°
2026-05-06 00:25 38.47572 -84.72568 28836 ft 438 kts 341°
2026-05-06 00:26 38.53336 -84.74580 28831 ft 429 kts 333°
2026-05-06 00:26 38.58964 -84.77172 28825 ft 430 kts 332°
2026-05-06 00:27 38.64570 -84.79787 28829 ft 431 kts 332°
2026-05-06 00:27 38.70225 -84.82419 28818 ft 433 kts 332°
2026-05-06 00:28 38.75861 -84.85045 28821 ft 432 kts 332°
2026-05-06 00:28 38.81520 -84.87682 28818 ft 434 kts 332°
2026-05-06 00:29 38.87216 -84.90341 28817 ft 434 kts 332°
2026-05-06 00:29 38.92890 -84.92996 28817 ft 436 kts 332°
2026-05-06 00:30 38.98610 -84.95668 28814 ft 437 kts 332°
2026-05-06 00:30 39.04294 -84.98327 28814 ft 437 kts 332°
2026-05-06 00:31 39.09989 -85.00997 28811 ft 437 kts 332°
2026-05-06 00:31 39.15739 -85.03705 28815 ft 437 kts 332°
2026-05-06 00:32 39.21458 -85.06402 28820 ft 437 kts 332°
2026-05-06 00:32 39.27143 -85.09086 28819 ft 437 kts 332°
2026-05-06 00:33 39.32861 -85.11796 28823 ft 437 kts 332°
2026-05-06 00:33 39.38543 -85.14480 28830 ft 436 kts 332°
2026-05-06 00:34 39.44264 -85.17184 28824 ft 436 kts 332°
2026-05-06 00:34 39.49951 -85.19885 28824 ft 435 kts 332°
2026-05-06 00:35 39.55627 -85.22582 28827 ft 435 kts 332°
2026-05-06 00:35 39.61283 -85.25275 28828 ft 435 kts 332°
2026-05-06 00:36 39.66983 -85.27996 28834 ft 436 kts 332°
2026-05-06 00:36 39.72671 -85.30714 28841 ft 435 kts 332°
2026-05-06 00:37 39.78359 -85.33442 28844 ft 437 kts 331°
2026-05-06 00:37 39.84026 -85.36163 28849 ft 436 kts 331°
2026-05-06 00:38 39.89720 -85.38900 28852 ft 437 kts 332°
2026-05-06 00:38 39.95425 -85.41647 28862 ft 437 kts 331°
2026-05-06 00:39 40.01129 -85.44401 28855 ft 436 kts 331°
2026-05-06 00:39 40.06796 -85.47143 28868 ft 438 kts 331°
2026-05-06 00:40 40.12486 -85.49902 28857 ft 438 kts 332°
2026-05-06 00:40 40.18137 -85.52640 28869 ft 438 kts 331°
2026-05-06 00:41 40.23881 -85.55434 28866 ft 439 kts 331°
2026-05-06 00:41 40.29589 -85.58215 28869 ft 439 kts 331°
2026-05-06 00:42 40.35281 -85.60991 28867 ft 438 kts 331°
2026-05-06 00:42 40.40995 -85.63789 28871 ft 439 kts 331°
2026-05-06 00:43 40.46737 -85.66601 28875 ft 440 kts 330°
2026-05-06 00:43 40.52565 -85.69068 28876 ft 444 kts 334°
2026-05-06 00:44 40.58530 -85.71261 28872 ft 445 kts 335°
2026-05-06 00:44 40.64508 -85.73449 28872 ft 446 kts 335°
2026-05-06 00:45 40.70479 -85.75645 28867 ft 447 kts 335°
2026-05-06 00:45 40.76501 -85.77863 28872 ft 448 kts 334°
2026-05-06 00:46 40.82416 -85.80188 28854 ft 438 kts 327°
2026-05-06 00:46 40.85007 -85.82155 28864 ft 423 kts 314°
2026-05-06 00:46 40.87109 -85.84798 28867 ft 408 kts 302°
2026-05-06 00:46 40.88647 -85.87856 28867 ft 399 kts 291°
2026-05-06 00:47 40.89779 -85.91145 28666 ft 397 kts 288°
2026-05-06 00:47 40.90881 -85.94489 28186 ft 394 kts 287°
2026-05-06 00:47 40.91952 -85.97770 27725 ft 392 kts 287°
2026-05-06 00:47 40.93033 -86.01099 27253 ft 393 kts 288°
2026-05-06 00:48 40.94099 -86.04394 26792 ft 394 kts 288°
2026-05-06 00:48 40.95176 -86.07714 26323 ft 398 kts 288°
2026-05-06 00:48 40.96276 -86.11120 25863 ft 402 kts 287°
2026-05-06 00:48 40.97360 -86.14474 25403 ft 399 kts 288°
2026-05-06 00:49 40.98441 -86.17820 24943 ft 398 kts 288°
2026-05-06 00:49 40.99533 -86.21207 24480 ft 399 kts 288°
2026-05-06 00:49 41.00622 -86.24594 24025 ft 399 kts 288°
2026-05-06 00:49 41.01695 -86.27920 23589 ft 398 kts 288°
2026-05-06 00:50 41.02782 -86.31294 23144 ft 397 kts 288°
2026-05-06 00:50 41.03848 -86.34617 22708 ft 395 kts 287°
2026-05-06 00:50 41.04918 -86.37955 22265 ft 393 kts 287°
2026-05-06 00:50 41.05974 -86.41258 21823 ft 391 kts 288°
2026-05-06 00:51 41.07032 -86.44572 21389 ft 388 kts 287°
2026-05-06 00:51 41.08078 -86.47855 20941 ft 386 kts 287°
2026-05-06 00:51 41.09105 -86.51073 20508 ft 385 kts 288°
2026-05-06 00:51 41.10136 -86.54318 20082 ft 381 kts 288°
2026-05-06 00:52 41.11168 -86.57562 19643 ft 379 kts 288°
2026-05-06 00:52 41.12223 -86.60738 19201 ft 377 kts 290°
2026-05-06 00:52 41.13396 -86.63852 18762 ft 378 kts 292°
2026-05-06 00:52 41.14646 -86.66878 18327 ft 375 kts 293°
2026-05-06 00:53 41.15907 -86.69893 17896 ft 372 kts 293°
2026-05-06 00:53 41.17152 -86.72864 17461 ft 370 kts 293°
2026-05-06 00:53 41.18393 -86.75835 17036 ft 367 kts 293°
2026-05-06 00:53 41.19620 -86.78770 16604 ft 363 kts 294°
2026-05-06 00:54 41.20838 -86.81688 16171 ft 358 kts 294°
2026-05-06 00:54 41.22029 -86.84541 15744 ft 354 kts 294°
2026-05-06 00:54 41.23218 -86.87401 15298 ft 350 kts 294°
2026-05-06 00:54 41.24386 -86.90205 14854 ft 345 kts 294°
2026-05-06 00:55 41.25520 -86.92933 14423 ft 341 kts 295°
2026-05-06 00:55 41.26658 -86.95674 13989 ft 338 kts 295°
2026-05-06 00:55 41.27795 -86.98412 13538 ft 336 kts 295°
2026-05-06 00:55 41.28909 -87.01100 13096 ft 333 kts 295°
2026-05-06 00:56 41.30031 -87.03799 12651 ft 331 kts 295°
2026-05-06 00:56 41.31135 -87.06464 12211 ft 329 kts 295°
2026-05-06 00:56 41.32219 -87.09094 11758 ft 327 kts 295°
2026-05-06 00:56 41.33313 -87.11746 11314 ft 326 kts 296°
2026-05-06 00:57 41.34391 -87.14352 11021 ft 319 kts 295°
2026-05-06 00:57 41.35455 -87.16915 10811 ft 310 kts 297°
2026-05-06 00:57 41.36669 -87.19253 10636 ft 304 kts 306°
2026-05-06 00:57 41.38094 -87.21234 10432 ft 296 kts 313°
2026-05-06 00:58 41.39605 -87.23059 10210 ft 287 kts 314°
2026-05-06 00:58 41.41070 -87.24793 10048 ft 278 kts 315°
2026-05-06 00:58 41.42719 -87.26133 10023 ft 285 kts 336°
2026-05-06 00:58 41.44670 -87.26669 10030 ft 293 kts 351°
2026-05-06 00:59 41.46716 -87.26756 9995 ft 295 kts 355°
2026-05-06 00:59 41.48768 -87.26739 10009 ft 294 kts 355°
2026-05-06 00:59 41.50817 -87.26703 10011 ft 294 kts 355°
2026-05-06 00:59 41.52853 -87.26666 9981 ft 294 kts 356°
2026-05-06 01:00 41.54913 -87.26629 9757 ft 294 kts 356°
2026-05-06 01:00 41.56939 -87.26599 9533 ft 291 kts 356°
2026-05-06 01:00 41.58949 -87.26581 9335 ft 289 kts 356°
2026-05-06 01:00 41.60953 -87.26570 9105 ft 287 kts 356°
2026-05-06 01:01 41.62949 -87.26559 8887 ft 286 kts 356°
2026-05-06 01:01 41.64939 -87.26556 8677 ft 283 kts 356°
2026-05-06 01:01 41.66902 -87.26557 8456 ft 278 kts 355°
2026-05-06 01:01 41.68800 -87.26562 8230 ft 273 kts 356°
2026-05-06 01:02 41.70683 -87.26572 8014 ft 268 kts 356°
2026-05-06 01:02 41.72535 -87.26592 7787 ft 263 kts 355°
2026-05-06 01:02 41.74302 -87.26936 7527 ft 252 kts 332°
2026-05-06 01:02 41.75603 -87.28439 7322 ft 256 kts 305°
2026-05-06 01:03 41.76670 -87.30401 7148 ft 259 kts 307°
2026-05-06 01:03 41.77784 -87.32258 6945 ft 259 kts 309°
2026-05-06 01:03 41.78947 -87.34124 6709 ft 258 kts 310°
2026-05-06 01:03 41.80100 -87.35948 6482 ft 257 kts 310°
2026-05-06 01:04 41.81249 -87.37752 6247 ft 256 kts 311°
2026-05-06 01:04 41.82417 -87.39577 6011 ft 256 kts 311°
2026-05-06 01:04 41.83561 -87.41362 5790 ft 255 kts 311°
2026-05-06 01:04 41.84710 -87.43153 5564 ft 253 kts 311°
2026-05-06 01:05 41.85857 -87.44941 5340 ft 253 kts 311°
2026-05-06 01:05 41.87002 -87.46728 5119 ft 252 kts 311°
2026-05-06 01:05 41.88133 -87.48493 4886 ft 251 kts 312°
2026-05-06 01:05 41.89276 -87.50279 4659 ft 250 kts 312°
2026-05-06 01:06 41.90403 -87.52040 4427 ft 250 kts 312°
2026-05-06 01:06 41.91530 -87.53803 4202 ft 248 kts 312°
2026-05-06 01:06 41.92645 -87.55549 4025 ft 241 kts 312°
2026-05-06 01:06 41.93700 -87.57202 4012 ft 227 kts 313°
2026-05-06 01:07 41.94711 -87.58783 4004 ft 214 kts 312°
2026-05-06 01:07 41.95650 -87.60256 4035 ft 200 kts 313°
2026-05-06 01:07 41.96310 -87.61803 4059 ft 188 kts 290°
2026-05-06 01:07 41.96497 -87.63493 4062 ft 181 kts 278°
2026-05-06 01:08 41.96560 -87.65168 4032 ft 181 kts 276°
2026-05-06 01:08 41.96586 -87.66892 3879 ft 183 kts 275°
2026-05-06 01:08 41.96591 -87.68583 3635 ft 179 kts 274°
2026-05-06 01:08 41.96587 -87.70208 3397 ft 172 kts 274°
2026-05-06 01:09 41.96580 -87.71761 3162 ft 161 kts 274°
2026-05-06 01:09 41.96573 -87.73205 2932 ft 147 kts 275°
2026-05-06 01:09 41.96570 -87.74556 2743 ft 143 kts 275°
2026-05-06 01:09 41.96570 -87.75890 2570 ft 142 kts 275°
2026-05-06 01:10 41.96568 -87.77210 2391 ft 142 kts 275°
2026-05-06 01:10 41.96567 -87.78527 2212 ft 141 kts 275°
2026-05-06 01:10 41.96566 -87.79848 2029 ft 141 kts 275°
2026-05-06 01:10 41.96565 -87.81149 1842 ft 140 kts 274°
2026-05-06 01:11 41.96563 -87.82467 1648 ft 140 kts 274°
2026-05-06 01:11 41.96563 -87.83758 1460 ft 139 kts 274°
2026-05-06 01:11 41.96564 -87.85067 1273 ft 140 kts 274°
2026-05-06 01:11 41.96564 -87.86369 1086 ft 139 kts 273°
2026-05-06 01:12 41.96564 -87.87658 902 ft 139 kts 272°
2026-05-06 01:12 41.96566 -87.88966 731 ft 138 kts 273°
2026-05-06 01:12 41.96574 -87.90241 676 ft 132 kts 272°
2026-05-06 01:12 41.96577 -87.91339 669 ft 96 kts 269°
2026-05-06 01:13 41.96569 -87.91994 671 ft 35 kts 267°
2026-05-06 01:13 41.96582 -87.92080 671 ft 6 kts 333°
2026-05-06 01:13 41.96629 -87.92087 671 ft 7 kts 359°
2026-05-06 01:13 41.96698 -87.92088 672 ft 13 kts 359°
2026-05-06 01:14 41.96898 -87.92087 672 ft 14 kts
2026-05-06 01:14 41.96998 -87.92084 672 ft 13 kts 11°
2026-05-06 01:14 41.97039 -87.91980 671 ft 14 kts 88°
2026-05-06 01:15 41.97040 -87.91845 671 ft 14 kts 90°
2026-05-06 01:15 41.97040 -87.91708 671 ft 14 kts 90°
2026-05-06 01:15 41.97039 -87.91568 670 ft 15 kts 90°
2026-05-06 01:15 41.97039 -87.91428 670 ft 15 kts 90°
2026-05-06 01:16 41.97040 -87.91286 670 ft 15 kts 89°
2026-05-06 01:16 41.97041 -87.91142 669 ft 15 kts 91°
2026-05-06 01:16 41.97040 -87.90995 669 ft 15 kts 90°
2026-05-06 01:16 41.97041 -87.90847 668 ft 16 kts 89°
2026-05-06 01:17 41.97041 -87.90693 667 ft 16 kts 91°
2026-05-06 01:17 41.97041 -87.90537 666 ft 17 kts 89°
2026-05-06 01:17 41.97042 -87.90373 664 ft 17 kts 90°
2026-05-06 01:17 41.97042 -87.90212 662 ft 13 kts 90°
2026-05-06 01:18 41.97074 -87.90138 662 ft 9 kts 15°
2026-05-06 01:18 41.97129 -87.90108 662 ft 9 kts 57°
2026-05-06 01:18 41.97139 -87.89999 660 ft 15 kts 90°
2026-05-06 01:18 41.97159 -87.89825 659 ft 21 kts 67°
2026-05-06 01:19 41.97226 -87.89645 657 ft 21 kts 63°
2026-05-06 01:19 41.97296 -87.89476 656 ft 17 kts 46°
2026-05-06 01:19 41.97409 -87.89432 656 ft 17 kts 358°
2026-05-06 01:19 41.97523 -87.89434 656 ft 13 kts
2026-05-06 01:20 41.97579 -87.89403 656 ft 8 kts 62°
2026-05-06 01:20 41.97582 -87.89335 656 ft 6 kts 111°
2026-05-06 01:20 41.97578 -87.89284 656 ft 5 kts 78°
2026-05-06 01:20 41.97588 -87.89249 655 ft 2 kts 67°
2026-05-06 01:21 41.97594 -87.89231 655 ft 0 kts 67°